Location: Gouy
(50.0008°N, 3.2556°E)
Time: 19:17:46
(UTC+00:00)

NOSS 3-4 (A) - Pass Details

Date: 23 May 2024
Orbit: 801 x 1410 km, 63.4° (Epoch: 04 June)

Event Time Altitude Azimuth Distance (km) Brightness Sun altitude
Rises 00:32:55 0° 315° (NW) 3,752 7.0 -18.5°
Reaches altitude 10° 00:35:25 10° 311° (NW) 2,880 6.3 -18.4°
Maximum altitude 00:42:06 55° 236° (WSW) 1,391 4.0 -18.2°
Enters shadow 00:47:12 22° 168° (SSE) 2,450 5.1 -18.0°
